TimeMDT,TemperatureF,Dew PointF,Humidity,Sea Level PressureIn,VisibilityMPH,Wind Direction,Wind SpeedMPH,Gust SpeedMPH,PrecipitationIn,Events,Conditions,WindDirDegrees,DateUTC
12:00 AM,56,45,57,29.94,,NW,3.5,,,,,320,2013-05-26 06:00:00
12:00 AM,55.9,45.1,67,29.94,-9999.0,NW,3.5,-,N/A,,Unknown,320,2013-05-26 06:00:00
1:00 AM,52.2,43.9,73,29.96,-9999.0,NNW,2.3,-,N/A,,Unknown,330,2013-05-26 07:00:00
2:00 AM,50.0,42.8,76,29.96,-9999.0,North,2.3,-,N/A,,Unknown,350,2013-05-26 08:00:00
3:00 AM,53.1,43.3,70,29.96,-9999.0,NNW,3.5,-,N/A,,Unknown,330,2013-05-26 09:00:00
4:00 AM,52.7,42.8,69,29.96,-9999.0,NNW,3.5,-,N/A,,Unknown,330,2013-05-26 10:00:00
5:00 AM,50.0,41.7,73,29.96,-9999.0,NNW,3.5,-,N/A,,Unknown,330,2013-05-26 11:00:00
6:00 AM,48,42,71,29.97,,NNW,3.5,,,,,340,2013-05-26 12:00:00
6:00 AM,47.8,41.5,79,29.97,-9999.0,NNW,3.5,-,N/A,,Unknown,340,2013-05-26 12:00:00
8:00 AM,51.8,42.1,69,29.98,-9999.0,NNW,3.5,-,N/A,,Unknown,330,2013-05-26 14:00:00
9:00 AM,56.7,43.3,61,29.98,-9999.0,NNW,2.3,-,N/A,,Unknown,340,2013-05-26 15:00:00
10:00 AM,62.2,45.0,53,29.97,-9999.0,SSW,2.3,-,N/A,,Unknown,200,2013-05-26 16:00:00
11:00 AM,66.7,42.8,42,29.95,-9999.0,SSW,2.3,-,N/A,,Unknown,200,2013-05-26 17:00:00
1:00 PM,75.7,42.8,31,29.91,-9999.0,South,3.5,-,N/A,,Unknown,180,2013-05-26 19:00:00
2:00 PM,78.1,34.3,20,29.89,-9999.0,South,6.9,-,N/A,,Unknown,180,2013-05-26 20:00:00
3:00 PM,80.6,31.8,17,29.87,-9999.0,South,5.8,-,N/A,,Unknown,190,2013-05-26 21:00:00
4:00 PM,81.0,33.3,18,29.86,-9999.0,South,6.9,-,N/A,,Unknown,190,2013-05-26 22:00:00
5:00 PM,81.1,33.4,18,29.85,-9999.0,South,6.9,-,N/A,,Unknown,180,2013-05-26 23:00:00
6:00 PM,83,36,10,29.84,,SSW,4.6,,,,,200,2013-05-27 00:00:00
6:00 PM,82.8,35.6,18,29.84,-9999.0,SSW,4.6,-,N/A,,Unknown,200,2013-05-27 00:00:00
7:00 PM,81.0,38.1,22,29.84,-9999.0,SSE,3.5,-,N/A,,Unknown,160,2013-05-27 01:00:00
8:00 PM,75.2,44.8,34,29.83,-9999.0,SSW,2.3,-,N/A,,Unknown,200,2013-05-27 02:00:00
9:00 PM,76.6,42.1,29,29.82,-9999.0,South,1.2,-,N/A,,Unknown,170,2013-05-27 03:00:00
10:00 PM,68.2,46.2,45,29.82,-9999.0,Calm,Calm,-,N/A,,Unknown,0,2013-05-27 04:00:00